Location: Sternwarte der Astronomie-Werkstatt "Sterne ohne Grenzen"
(50.5725°N, 6.4408°E)
Time: 17:56:01
(UTC+01:00)

ISS - Pass Details

Date: 23 December 2025
Orbit: 414 x 424 km, 51.6° (Epoch: 12 January)

Event Time Altitude Azimuth Distance (km) Brightness Sun altitude
Exits shadow 07:12:00 20° 283° (WNW) 1,046 -2.4 -12.1°
Maximum altitude 07:14:13 80° 9° (N) 437 -3.8 -11.8°
Drops below altitude 10° 07:17:38 10° 97° (E) 1,519 0.4 -11.3°
Sets 07:19:45 0° 99° (E) 2,383 1.8 -10.9°
